Location: Newark
(35.2672°N, 80.7344°W)
Time: 10:46:52
(UTC+00:00)

Vanguard 2 - Visible Passes

Search period start: 25 January 2020 00:00
Search period end: 04 February 2020 00:00
Orbit: 553 x 2938 km, 32.9° (Epoch: 25 January)

Date Brightness Start Highest point End Pass type
(mag) Time Alt. Az. Time Alt. Az. Time Alt. Az.
26 Jan 12.5 11:35:23 10° SSE 11:39:41 11° SE 11:43:45 10° SE visible
27 Jan 12.3 11:47:53 10° S 11:57:38 18° SE 12:06:17 10° ESE visible
30 Jan 12.2 10:31:58 10° SSE 10:40:13 15° SE 10:48:08 10° ESE visible
31 Jan 12.0 10:46:18 10° S 10:57:58 22° SE 11:08:57 10° E visible
01 Feb 11.9 11:01:58 10° SSW 11:15:43 29° SE 11:28:29 10° E visible
02 Feb 12.2 09:18:43 10° SSE 09:22:49 11° SE 09:26:58 10° ESE visible
02 Feb 11.6 11:18:18 10° SSW 11:33:28 37° SE 11:47:21 10° E visible
03 Feb 11.9 09:30:56 10° S 09:40:24 17° SE 09:50:09 10° E visible
03 Feb 11.3 11:35:08 10° SSW 11:51:16 45° SSE 12:05:53 10° E visible
